EW2167 Weather Reports


Display with metric or nautical units.
time (UTC)temp
F
wind
direction
speed
MPH
gust
MPH
rain 1hr
in
rain 24hr
in
rain mn
in
humidity
%
barometer
mb
20260509003032 64 227 3.0 7.0 0.00 0.00 0.00 57 1009.6
20260509001531 64 232 2.0 7.0 0.00 0.00 0.00 55 1009.6
20260509000030 65 238 2.0 9.0 0.00 0.00 0.00 53 1009.8
20260508234534 65 214 4.0 8.0 0.00 0.00 0.00 53 1009.8
20260508233032 65 234 4.0 7.0 0.00 0.00 0.00 53 1009.5
20260508231532 65 216 3.0 6.0 0.00 0.00 0.00 54 1009.6
20260508230030 66 217 2.0 5.0 0.00 0.00 0.00 52 1009.7
20260508224531 66 215 3.0 7.0 0.00 0.00 0.00 51 1009.5
20260508223035 66 225 3.0 10.0 0.00 0.00 0.00 51 1009.5
20260508221536 67 218 4.0 14.0 0.00 0.00 0.00 48 1009.5
20260508220036 67 240 4.0 13.0 0.00 0.00 0.00 50 1009.4
20260508214530 68 234 6.0 16.0 0.00 0.00 0.00 46 1009.2
20260508213043 68 217 5.0 15.0 0.00 0.00 0.00 48 1009.3
20260508211534 68 243 6.0 13.0 0.00 0.00 0.00 47 1009.4
20260508210035 70 213 2.0 14.0 0.00 0.00 0.00 47 1009.6
20260508204533 71 162 6.0 16.0 0.00 0.00 0.00 44 1009.9
20260508203035 69 253 5.0 19.0 0.00 0.00 0.00 47 1010.1
20260508201536 68 241 6.0 14.0 0.00 0.00 0.00 47 1010.5
20260508200039 68 215 6.0 17.0 0.00 0.00 0.00 46 1010.7
20260508194534 68 223 3.0 14.0 0.00 0.00 0.00 46 1011.0
20260508193030 67 235 8.0 17.0 0.00 0.00 0.00 47 1011.2
20260508191534 67 227 5.0 20.0 0.00 0.00 0.00 45 1011.3
20260508190035 68 249 6.0 18.0 0.00 0.00 0.00 49 1011.4
20260508184534 70 230 4.0 21.0 0.00 0.00 0.00 45 1011.5
20260508183036 70 238 4.0 15.0 0.00 0.00 0.00 49 1011.7
20260508181552 67 254 6.0 16.0 0.00 0.00 0.00 48 1012.1
20260508180030 67 236 6.0 17.0 0.00 0.00 0.00 48 1012.5
20260508174531 69 251 11.0 20.0 0.00 0.00 0.00 45 1012.4
20260508173032 67 228 11.0 17.0 0.00 0.00 0.00 46 1012.7
20260508171531 69 234 6.0 16.0 0.00 0.00 0.00 50 1013.0
20260508170031 68 198 5.0 13.0 0.00 0.00 0.00 53 1013.2
20260508164538 66 210 6.0 19.0 0.00 0.00 0.00 50 1013.6
20260508163030 66 244 9.0 19.0 0.00 0.00 0.00 51 1013.7
20260508161535 67 250 6.0 19.0 0.00 0.00 0.00 51 1014.0
20260508160038 66 203 8.0 18.0 0.00 0.00 0.00 52 1014.0
20260508154537 65 269 8.0 21.0 0.00 0.00 0.00 53 1014.1
20260508153033 64 250 9.0 18.0 0.00 0.00 0.00 52 1014.2
20260508151530 64 240 6.0 16.0 0.00 0.00 0.00 55 1014.5
20260508150032 63 227 8.0 17.0 0.00 0.00 0.00 52 1014.7
20260508144531 63 244 7.0 18.0 0.00 0.00 0.00 53 1014.7
20260508143036 62 196 9.0 20.0 0.00 0.00 0.00 55 1014.8
20260508141545 61 246 5.0 13.0 0.00 0.00 0.00 60 1015.0
20260508140030 59 242 8.0 15.0 0.00 0.00 0.00 57 1015.0
20260508134534 58 242 6.0 13.0 0.00 0.00 0.00 58 1015.2
20260508133032 57 234 6.0 17.0 0.00 0.00 0.00 62 1015.2
20260508131530 56 228 7.0 14.0 0.00 0.00 0.00 62 1015.3
20260508130031 54 218 4.0 12.0 0.00 0.00 0.00 66 1015.2
20260508124532 52 218 3.0 9.0 0.00 0.00 0.00 69 1015.1
20260508123031 51 211 4.0 10.0 0.00 0.00 0.00 72 1015.0
20260508121532 49 217 5.0 10.0 0.00 0.00 0.00 72 1014.9
20260508120037 48 211 4.0 8.0 0.00 0.00 0.00 74 1015.0
20260508114529 46 219 4.0 7.0 0.00 0.00 0.00 77 1014.8
20260508113030 44 212 3.0 6.0 0.00 0.00 0.00 81 1014.7
20260508111549 42 205 3.0 6.0 0.00 0.00 0.00 82 1014.5
20260508110032 42 209 3.0 5.0 0.00 0.00 0.00 84 1014.5
20260508104530 42 210 3.0 5.0 0.00 0.00 0.00 84 1014.4
20260508103033 43 213 3.0 5.0 0.00 0.00 0.00 82 1014.4
20260508101538 44 214 2.0 5.0 0.00 0.00 0.00 78 1014.5
20260508100030 44 216 3.0 4.0 0.00 0.00 0.00 80 1014.3
20260508094529 45 226 2.0 5.0 0.00 0.00 0.00 80 1014.4
20260508093032 45 227 2.0 5.0 0.00 0.00 0.00 80 1014.4
20260508091531 45 230 2.0 4.0 0.00 0.00 0.00 79 1014.2
20260508090035 44 230 2.0 5.0 0.00 0.00 0.00 80 1014.4
20260508084532 43 227 3.0 5.0 0.00 0.00 0.00 81 1014.3
20260508083035 43 213 3.0 6.0 0.00 0.00 0.00 80 1014.3
20260508081530 43 232 3.0 6.0 0.00 0.00 0.00 80 1014.2
20260508080035 43 234 3.0 6.0 0.00 0.00 0.00 80 1014.2
20260508074528 42 228 3.0 6.0 0.00 0.00 0.00 82 1014.3
20260508073032 42 232 2.0 4.0 0.00 0.00 0.00 82 1014.3
20260508071530 42 234 3.0 5.0 0.00 0.00 0.00 82 1014.3
20260508070029 43 217 2.0 5.0 0.00 0.00 0.00 79 1014.5
20260508064538 42 211 3.0 5.0 0.00 0.00 0.00 80 1014.6
20260508063030 43 230 2.0 4.0 0.00 0.00 0.00 81 1014.9
20260508061534 44 236 3.0 5.0 0.00 0.00 0.00 78 1015.1
20260508060029 44 236 3.0 5.0 0.00 0.00 0.00 76 1015.1
20260508054535 44 232 2.0 5.0 0.00 0.00 0.00 77 1015.2
20260508053035 44 236 3.0 5.0 0.00 0.00 0.00 75 1015.1
20260508051533 45 236 2.0 4.0 0.00 0.00 0.00 76 1015.1
20260508050032 46 239 2.0 6.0 0.00 0.00 0.00 69 1015.0
20260508044530 46 233 3.0 8.0 0.00 0.00 0.00 73 1015.1
20260508043032 46 229 3.0 7.0 0.00 0.00 0.00 73 1015.1
20260508041530 46 239 2.0 7.0 0.00 0.00 0.00 72 1015.2
20260508040037 45 232 2.0 5.0 0.00 0.00 0.00 75 1015.2
20260508034531 45 219 3.0 7.0 0.00 0.00 0.00 74 1015.1
20260508033033 44 221 2.0 5.0 0.00 0.00 0.00 79 1015.2
20260508031533 44 0 0.0 0.0 0.00 0.00 0.00 80 1015.3
20260508030033 44 0 0.0 0.0 0.00 0.00 0.00 82 1015.1
20260508024542 45 0 0.0 0.0 0.00 0.00 0.00 81 1014.9
20260508023033 46 0 0.0 0.0 0.00 0.00 0.00 75 1015.1
20260508021535 46 0 0.0 0.0 0.00 0.00 0.00 78 1014.9
20260508020030 47 0 0.0 0.0 0.00 0.00 0.00 71 1014.9
20260508014545 47 0 0.0 0.0 0.00 0.00 0.00 70 1014.9
20260508013033 48 0 0.0 0.0 0.00 0.00 0.00 69 1014.7
20260508011535 48 0 0.0 0.0 0.00 0.00 0.00 69 1014.7
20260508010033 48 0 0.0 0.0 0.00 0.00 0.00 71 1014.7
20260508004531 51 0 0.0 0.0 0.00 0.00 0.00 66 1014.6